Flag for Australia Weather past 2 weeks in Tamworth, New South Wales, Australia

Now
63 °F

Sunny.


Feels Like: 63 °F
Forecast: 38 / 63 °F
Wind: 13 mph from West

Location: Tamworth Airport

Current Time: Sep 17, 2014 at 11:50:38 AM

Latest Report: Sep 17, 2014 at 11:00 AM


Visibility: N/A

Pressure: 29.98 "Hg

Humidity: 34%

Dew point: 34 °F

Location of TamworthLocation

Historic Weather in Tamworth — Graph

°F

Tamworth temperature yesterday

Maximum temperature yesterday: 77 °F (at 11:00 AM)
Minimum temperature yesterday: 50 °F (at 6:00 AM)
Average temperature yesterday: 63 °F

Past Weeks' High & Low Weather Summary

 TemperatureHumidityPressure
High77 °F (Sep 15, 2:00 PM)93% (Sep 11, 6:00 AM)30.39 "Hg (Sep 11, 6:00 AM)
Low36 °F (Sep 4, 3:00 AM)19% (Sep 15, 2:00 PM)29.80 "Hg (Sep 16, 2:00 PM)
Average56 °F58%30.09 "Hg
* Reported Sep 2 11:00 AM — Sep 17 11:00 AM, Tamworth, Weather by CustomWeather, © 2014

Note: Actual official high and low records may vary slightly from our data, if they occured in-between our weather recording intervals... More about our weather records

Advertising

Tamworth weather history for previous 24 hours

 ConditionsComfort  
Time TempWeatherWind HumidityBarometerVisibility
11:00 AM
Sep 17
63 °FSunny.13 mph34%29.98 "HgN/A
10:30 AM63 °FScattered clouds.7 mph37%30.01 "HgN/A
10:00 AM61 °FScattered clouds.12 mph39%30.01 "HgN/A
9:30 AM63 °FScattered clouds.13 mph42%30.01 "HgN/A
9:00 AM59 °FSunny.6 mph51%30.01 "HgN/A
8:00 AM55 °FSunny.6 mph63%30.01 "HgN/A
7:30 AM50 °FSunny.3 mph71%30.01 "HgN/A
7:00 AM48 °FSunny.No wind71%30.01 "HgN/A
6:30 AM43 °FSunny.No wind81%29.98 "HgN/A
6:00 AM41 °FSunny.2 mph87%29.98 "HgN/A
5:30 AM43 °FSunny.3 mph81%29.98 "HgN/A
5:00 AM43 °FSunny.3 mph76%29.95 "HgN/A
4:00 AM45 °FClear.5 mph76%29.95 "HgN/A
3:30 AM45 °FClear.3 mph71%29.95 "HgN/A
3:00 AM46 °FClear.3 mph71%29.95 "HgN/A
2:00 AM48 °FClear.6 mph71%29.95 "HgN/A
1:30 AM48 °FClear.1 mph71%29.98 "HgN/A
1:00 AM48 °FClear.6 mph66%29.98 "HgN/A
12:30 AM52 °FClear.9 mph62%29.98 "HgN/A
12:00 AM54 °FClear.13 mph63%29.98 "HgN/A
11:00 PM
Sep 16
52 °FClear.8 mph62%29.95 "HgN/A
10:30 PM55 °FClear.13 mph59%29.95 "HgN/A
10:00 PM54 °FClear.10 mph63%29.95 "HgN/A
9:30 PM55 °FClear.9 mph59%29.95 "HgN/A
9:00 PM57 °FClear.10 mph55%29.95 "HgN/A
8:30 PM59 °FClear.13 mph51%29.95 "HgN/A
8:00 PM57 °FClear.8 mph51%29.92 "HgN/A
7:30 PM59 °FClear.9 mph45%29.92 "HgN/A
7:00 PM59 °FClear.8 mph42%29.92 "HgN/A
6:00 PM64 °FClear.14 mph34%29.86 "HgN/A
5:30 PM66 °FClear.14 mph32%29.86 "HgN/A
5:00 PM70 °FClear.16 mph29%29.86 "HgN/A
4:30 PM72 °FSunny.20 mph27%29.83 "HgN/A
4:00 PM73 °FScattered clouds.20 mph23%29.83 "HgN/A
3:30 PM73 °FScattered clouds.22 mph22%29.80 "HgN/A
3:00 PM73 °FSunny.22 mph23%29.80 "HgN/A
2:00 PM75 °FSunny.23 mph24%29.80 "HgN/A
1:30 PM75 °FSunny.21 mph24%29.83 "HgN/A
1:00 PM75 °FSunny.26 mph22%29.83 "HgN/A
12:00 PM77 °FSunny.23 mph24%29.86 "HgN/A
11:00 AM77 °FSunny.23 mph26%29.86 "HgN/A
Weather by CustomWeather, © 2014

See weather overviewHow to use our weather pages